This demonstration page uses our WeatherBlox Daily Observations layout. Learn more.

Hourly Observations for June 1, 2018

Temp ( °F °C ) Dew Point ( °F °C ) Humidity (%) Winds ( mph kmh ) Pressure ( in mb ) Visibility ( mi km ) Precip ( " mm )
12:15 am 00:15 Clear 69 20.8 62 16.5 77 77 SSE 9 15 29.74 1007 10 16.09344 0 0
12:35 am 00:35 Clear 68 20.1 61 16.2 78 78 SSE 8 13 29.74 1007 10 16.09344 0 0
12:55 am 00:55 Clear 68 20.1 61 16.2 78 78 SSE 9 15 29.74 1007 10 16.09344 0 0
1:15 am 01:15 Clear 68 19.9 61 16.1 79 79 SSE 7 11 29.74 1007 10 16.09344 0 0
1:35 am 01:35 Clear 67 19.2 61 16.1 82 82 SSE 7 11 29.74 1007 10 16.09344 0 0
1:55 am 01:55 Clear 66 19.1 61 16.3 84 84 SSE 8 13 29.74 1007 10 16.09344 0 0
2:15 am 02:15 Clear 66 19 61 16.3 84 84 SSE 8 13 29.77 1008 10 16.09344 0 0
2:35 am 02:35 Clear 65 18.3 61 16.1 87 87 SE 8 13 29.77 1008 10 16.09344 0 0
2:55 am 02:55 Clear 64 17.8 61 16.1 90 90 SE 7 11 29.74 1007 10 16.09344 0 0
3:15 am 03:15 Clear 64 17.7 61 16.3 92 92 SE 8 13 29.74 1007 10 16.09344 0 0
3:35 am 03:35 Clear 64 17.8 61 16.3 91 91 SE 7 11 29.74 1007 10 16.09344 0 0
3:55 am 03:55 Clear 64 18 61 16.3 90 90 SSE 9 15 29.74 1007 10 16.09344 0 0
4:15 am 04:15 Clear 65 18.5 62 16.6 89 89 SSE 9 15 29.74 1007 10 16.09344 0 0
4:35 am 04:35 Clear 65 18.3 62 16.9 92 92 SE 8 13 29.74 1007 10 16.09344 0 0
4:55 am 04:55 Clear 64 18 62 16.9 93 93 SE 7 11 29.74 1007 10 16.09344 0 0
5:15 am 05:15 Clear 64 17.7 62 16.9 95 95 SE 7 11 29.74 1007 10 16.09344 0 0
5:35 am 05:35 Clear 64 18 63 17.1 95 95 SSE 7 11 29.77 1008 10 16.09344 0 0
5:55 am 05:55 Clear 65 18.1 64 17.5 96 96 SSE 8 13 29.74 1007 10 16.09344 0 0
6:15 am 06:15 Sunny 65 18.5 64 18 97 97 SSE 8 13 29.74 1007 10 16.09344 0 0
6:35 am 06:35 Sunny 65 18.6 65 18.1 97 97 SSE 9 15 29.74 1007 10 16.09344 0 0
6:55 am 06:55 Sunny 67 19.2 65 18.6 96 96 SSE 8 13 29.74 1007 10 16.09344 0 0
7:15 am 07:15 Sunny 68 19.9 66 19.1 95 95 SSE 8 13 29.74 1007 10 16.09344 0 0
7:35 am 07:35 Sunny 70 21 67 19.5 91 91 S 9 15 29.77 1008 10 16.09344 0 0
7:55 am 07:55 Sunny 70 21.3 67 19.7 91 91 SSE 12 19 29.77 1008 10 16.09344 0 0
8:15 am 08:15 Sunny 72 22.1 69 20.3 90 90 SSE 12 19 29.74 1007 10 16.09344 0 0
8:35 am 08:35 Sunny 73 23 69 20.8 87 87 SSE 13 20 29.74 1007 10 16.09344 0 0
8:55 am 08:55 Sunny 75 23.9 70 21.1 84 84 SSE 16 26 29.71 1006 10 16.09344 0 0
9:15 am 09:15 Sunny 77 25 70 21.1 79 79 SSE 17 28 29.68 1005 10 16.09344 0 0
9:35 am 09:35 Sunny 78 25.8 69 20.6 73 73 SSE 21 33 29.68 1005 10 16.09344 0 0
9:55 am 09:55 Sunny 80 26.5 69 20.6 70 70 SSE 22 35 29.68 1005 10 16.09344 0 0
10:15 am 10:15 Sunny 80 26.9 68 20.2 67 67 SSE 23 37 29.68 1005 10 16.09344 0 0
10:35 am 10:35 Sunny 82 27.8 69 20.3 64 64 SSE 22 35 29.68 1005 10 16.09344 0 0
10:55 am 10:55 Partly Cloudy 82 27.9 70 21.2 67 67 SSE 22 35 29.68 1005 10 16.09344 0 0
11:15 am 11:15 Partly Cloudy 83 28.1 70 21.2 66 66 SSE 23 37 29.65 1004 10 16.09344 0 0
11:35 am 11:35 Sunny 84 28.7 70 21 63 63 SSE 24 39 29.62 1003 10 16.09344 0 0
11:55 am 11:55 Sunny 84 28.9 70 21.3 64 64 SSE 25 41 29.62 1003 10 16.09344 0 0
12:15 pm 12:15 Sunny 85 29.2 70 21.3 62 62 SE 25 41 29.62 1003 10 16.09344 0 0
12:35 pm 12:35 Sunny 85 29.4 71 21.5 63 63 SSE 26 43 29.62 1003 10 16.09344 0 0
12:55 pm 12:55 Sunny 86 30 71 21.9 62 62 SSE 24 39 29.62 1003 10 16.09344 0 0
1:15 pm 13:15 Partly Cloudy 86 30 72 22.1 63 63 SSE 25 41 29.62 1003 10 16.09344 0 0
1:35 pm 13:35 Partly Cloudy 87 30.7 72 22.2 61 61 SSE 21 33 29.62 1003 10 16.09344 0 0
1:55 pm 13:55 Mostly Cloudy 87 30.4 72 22.3 62 62 SSE 22 35 29.62 1003 10 16.09344 0 0
2:15 pm 14:15 Mostly Cloudy 88 31.2 71 21.9 58 58 SSE 23 37 29.62 1003 10 16.09344 0 0
2:35 pm 14:35 Mostly Cloudy 88 31.3 71 21.9 57 57 S 22 35 29.62 1003 10 16.09344 0 0
2:55 pm 14:55 Cloudy 88 31.1 72 22 58 58 SSE 20 31 29.59 1002 10 16.09344 0 0
3:15 pm 15:15 Mostly Cloudy 89 31.5 73 22.5 59 59 SSE 25 41 29.59 1002 10 16.09344 0 0
3:35 pm 15:35 Mostly Cloudy 89 31.9 73 22.5 58 58 SSE 24 39 29.59 1002 10 16.09344 0 0
3:55 pm 15:55 Partly Cloudy 89 31.7 72 22 56 56 SSE 28 44 29.53 1000 10 16.09344 0 0
4:15 pm 16:15 Mostly Cloudy 90 32.2 71 21.7 54 54 SSE 28 44 29.53 1000 10 16.09344 0 0
4:35 pm 16:35 Partly Cloudy 89 31.7 71 21.8 56 56 SSE 25 41 29.53 1000 10 16.09344 0 0
4:55 pm 16:55 Mostly Cloudy 89 31.9 71 21.9 55 55 S 24 39 29.53 1000 10 16.09344 0 0
5:15 pm 17:15 Partly Cloudy 89 31.5 71 21.8 56 56 SSE 24 39 29.56 1001 10 16.09344 0 0
5:35 pm 17:35 Mostly Cloudy 89 31.7 71 21.8 56 56 S 24 39 29.53 1000 10 16.09344 0 0
5:55 pm 17:55 Partly Cloudy 90 32.3 71 21.9 54 54 S 24 39 29.53 1000 10 16.09344 0 0
6:15 pm 18:15 Partly Cloudy 90 32.1 72 22.2 56 56 S 21 33 29.5 999 10 16.09344 0 0
6:35 pm 18:35 Partly Cloudy 90 32.2 72 22 55 55 S 21 33 29.5 999 10 16.09344 0 0
6:55 pm 18:55 Partly Cloudy 90 32.1 72 22.2 56 56 S 22 35 29.5 999 10 16.09344 0 0
7:15 pm 19:15 Sunny 90 32 72 22 55 55 S 22 35 29.5 999 10 16.09344 0 0
7:35 pm 19:35 Sunny 89 31.4 71 21.8 57 57 S 15 24 29.5 999 10 16.09344 0 0
7:55 pm 19:55 Sunny 87 30.5 71 21.5 59 59 S 17 28 29.53 1000 10 16.09344 0 0
8:15 pm 20:15 Sunny 86 29.9 71 21.5 61 61 S 10 17 29.53 1000 10 16.09344 0 0
8:35 pm 20:35 Sunny 85 29.4 71 21.6 63 63 S 10 17 29.53 1000 10 16.09344 0 0
8:55 pm 20:55 Sunny 84 29 71 21.8 65 65 S 12 19 29.5 999 10 16.09344 0 0
9:15 pm 21:15 Clear 84 28.8 71 21.7 66 66 S 13 20 29.5 999 10 16.09344 0 0
9:35 pm 21:35 Clear 83 28.4 71 21.8 67 67 S 7 11 29.53 1000 10 16.09344 0 0
9:55 pm 21:55 Clear 81 27.1 72 22 74 74 SSE 6 9 29.56 1001 10 16.09344 0 0
10:15 pm 22:15 Clear 80 26.6 72 22.4 78 78 SSE 8 13 29.56 1001 10 16.09344 0 0
10:35 pm 22:35 Clear 80 26.5 73 22.8 80 80 SSE 6 9 29.56 1001 10 16.09344 0 0
10:55 pm 22:55 Clear with Nearby Thunderstorms 80 26.6 73 23 81 81 SE 12 19 29.5 999 10 16.09344 0 0
11:15 pm 23:15 Clear with Thunderstorms 80 26.6 73 22.8 80 80 NNW 18 30 29.62 1003 10 16.09344 0 0
11:35 pm 23:35 Mostly Cloudy with Thunderstorms 66 18.9 57 14.1 74 74 N 23 37 29.71 1006 7 11.265408 0 0
11:55 pm 23:55 Cloudy with Heavy Thunderstorms 67 19.3 58 14.2 72 72 NE 13 20 29.71 1006 7 11.265408 0.01 0.254

Powered by AerisWeather